AirNav   Pilot Hours Calculator
 
 599 users online  

X04 Orlando Apopka Airport
Apopka, Florida, USA

GOING TO APOPKA?


FAA INFORMATION EFFECTIVE 01 DECEMBER 2022

Location

FAA Identifier: X04
Lat/Long: 28-42-26.9079N 081-34-55.0722W
28-42.448465N 081-34.917870W
28.7074744,-81.5819645
(estimated)
Elevation: 150 ft. / 46 m (estimated)
Variation: 06W (2015)
From city: 4 miles NW of APOPKA, FL
Time zone: UTC -5 (UTC -4 during Daylight Saving Time)
Zip code: 32798

Airport Operations

Airport use: Open to the public
Control tower: no
ARTCC: JACKSONVILLE CENTER
FSS: SAINT PETERSBURG FLIGHT SERVICE STATION
NOTAMs facility: PIE (NOTAM-D service available)
Attendance: 0800-1800
Wind indicator: lighted
Segmented circle: yes
Lights: PAPI 15 & 33 ON CONT DURG DALGT. AFTER SS, ACTVT PAPI RWY 15 & 33; LIRL RWY 15/33 - CTAF.
Beacon: white-green (lighted land airport)
Operates sunset to sunrise.

Airport Communications

CTAF/UNICOM: 123.05
ORLANDO APPROACH: 135.3
ORLANDO DEPARTURE: 135.3
GOOFY STAR: 124.8 128.375
WX ASOS at LEE (14 nm NW): PHONE 352-787-1565
WX ASOS at ORL (16 nm SE): 127.25 (407-658-6753)
WX ASOS at SFB (19 nm E): 125.975 (407-321-9384)

Nearby radio navigation aids

VOR radial/distance  VOR name  Freq  Var
ORLr307/16.3ORLANDO VORTAC112.2000E

Airport Services

Fuel available: 100LL JET-A
Parking: hangars and tiedowns
Airframe service: MAJOR
Powerplant service: MAJOR

Runway Information

Runway 15/33

Dimensions: 3987 x 60 ft. / 1215 x 18 m
Surface: asphalt, in fair condition
Runway edge lights: low intensity
RUNWAY 15  RUNWAY 33
Latitude: 28-42.728160N28-42.168770N
Longitude: 081-35.114220W081-34.721520W
Elevation: 142.2 ft.125.2 ft.
Traffic pattern: rightleft
Displaced threshold: 943 ft.no
Declared distances: TORA:3987 TODA:3987 ASDA:3987 LDA:3044TODA:3987 ASDA:3987 LDA:3987
Markings: basic, in fair conditionbasic, in fair condition
Visual slope indicator: 2-light PAPI on left (3.50 degrees glide path)2-light PAPI on left (3.00 degrees glide path)
Touchdown point: yes, no lightsyes, no lights
Obstructions: 10 ft. berm, 200 ft. from runway, 125 ft. left of centerline, 1:1 slope to clear
RWY 15 HAS 10 FT BERM 200 FT FM RWY END 125 FT LEFT.
57 ft. trees, 2170 ft. from runway, 150 ft. left of centerline, 34:1 slope to clear

Airport Ownership and Management from official FAA records

Ownership: Privately-owned
Owner: ORLANDO APOPKA ARPT CONDO ASSOC.
882 JACKSON AVE., REGISTERED AGENT
WINTER PARK, FL 32789
Phone 407-647-2622
Manager: BOB JACKSON
1321 APOPKA AIRPORT RD HANGAR 37
APOPKA, FL 32712
Phone 407-308-5904

Airport Operational Statistics

Aircraft based on the field: 249
Single engine airplanes: 196
Multi engine airplanes: 32
Jet airplanes: 3
Helicopters: 4
Gliders airplanes: 2
Ultralights: 12
    
Aircraft operations: avg 91/day *
88% local general aviation
11% transient general aviation
<1% air taxi
* for 12-month period ending 17 August 2018

Additional Remarks

STEEP DROPOFF 63 FT FM SE END & APRXLY 60 FT OFF WEST & EAST EDGE.
RY 15/33 RR PENETRATES 7:1 TRANS SFC EAST SIDE.
CTC UNICOM OR 407-308-5904 FOR SAFETY BRIEFING.
RY 15/33 CLSD TO TOUCH AND GO LNDGS BY TRANSIENT HELICOPTERS.
FOR CD OR TO CNL IFR CTC ORLANDO APCH AT 407-825-3398.
ACTVT AUTOMATED UNICOM - CTAF
ACFT HLDG SHRT RWY 15 MAY BE UNA TO SEE ACFT ON FINAL FOR RWY 15.

Instrument Procedures

NOTE: All procedures below are presented as PDF files. If you need a reader for these files, you should download the free Adobe Reader.

NOT FOR NAVIGATION. Please procure official charts for flight.
FAA instrument procedures published for use from 01 December 2022 at 0901Z to 29 December 2022 at 0900z.

 
STARs - Standard Terminal Arrivals
GOOFY SEVEN   download (266KB)
 
IAPs - Instrument Approach Procedures
RNAV (GPS)-A   download (212KB)
RNAV (GPS)-B   download (188KB)
NOTE: Special Take-Off Minimums/Departure Procedures apply   download (162KB)

Other nearby airports with instrument procedures:

X23 - Umatilla Municipal Airport (14 nm N)
KLEE - Leesburg International Airport (14 nm NW)
KORL - Executive Airport (16 nm SE)
KSFB - Orlando Sanford International Airport (19 nm E)
KMCO - Orlando International Airport (22 nm SE)
 
Loc | Ops | Rwys | IFR | FBO | Links
Com | Nav | Svcs | Stats | Notes


 
Area around X04 (Orlando Apopka Airport)
 
Road maps at: MapQuest Bing Google
 
Aerial photo
WARNING: Photo may not be current or correct
Aerial photo of X04 (Orlando Apopka Airport)
Photo by Jim Hobart of MacBethPhoto.com
Photo taken 14-Jul-2011
looking northwest.

Do you have a better or more recent aerial photo of Orlando Apopka Airport that you would like to share? If so, please send us your photo.

 
Sectional chart

 
Airport distance calculator
Flying to Orlando Apopka Airport? Find the distance to fly.

From to X04

Sunrise and sunset
Times for 10-Dec-2022
 Local
(UTC-5)
 Zulu
(UTC)
Morning civil twilight06:4411:44
Sunrise07:0912:09
Sunset17:2922:29
Evening civil twilight17:5522:55

Current date and time
Zulu (UTC)  10-Dec-2022 10:24:47
Local (UTC-5)  10-Dec-2022 05:24:47
 
METAR
KLEE 
14nm NW 
100953Z AUTO 00000KT 4SM BR OVC002 17/17 A3012 RMK AO2 SLP197 T01720167
KORL 
16nm SE 
101001Z AUTO 30006KT 2 1/2SM BR OVC002 17/17 A3010 RMK AO2 T01720167
KSFB 
20nm E 
100953Z AUTO 30005KT 2 1/2SM BR OVC002 16/16 A3010 RMK AO2 SLP191 T01610161
KMCO 
22nm SE 
100953Z 29004KT 1/2SM R35L/1800V2800FT FG OVC002 17/17 A3011 RMK AO2 SLP193 T01720172
KISM 
27nm S 
101005Z AUTO 34006KT 1/2SM -RA FG OVC002 17/17 A3012 RMK AO2 PNO $
KDED 
27nm NE 
100950Z AUTO 28004KT 3/4SM FG OVC002 16/16 A3011 RMK AO2 T01620157
TAF
KLEE 
14nm NW 
100540Z 1006/1106 26003KT 5SM BR BKN005 BKN045 TEMPO 1009/1013 1/2SM FG SCT003 FM101400 33003KT P6SM FEW004 SCT030 FM101800 35006KT P6SM FEW040
KSFB 
20nm E 
100540Z 1006/1106 27003KT P6SM SKC FM100900 VRB03KT 4SM BR FEW004 SCT015 TEMPO 1009/1013 1SM BR BKN004 FM101400 32004KT P6SM FEW004 SCT030 FM101800 36007KT P6SM FEW040
NOTAMs
Click for the latest NOTAMs
NOTAMs are issued by the DoD/FAA and will open in a separate window not controlled by AirNav.

 

 
 

FBO, Fuel Providers, and Aircraft Ground Support

  
 Business Name 
 
 Contact 
 
 Services / Description 
 
Fuel Prices
 
Comments
  
First Landings Aviation 407-886-7612
no information available

If you are affiliated with First Landings Aviation and would like to show here your services, contact info, web link, logo, and more, click here
100LL Jet A
SS $5.96 $6.99 
 Updated 01-Dec-2022
 
   write
SS=Self service
Update Fuel Prices
 

Aviation Businesses, Services, and Facilities

  
 Business Name 
 
 Contact 
 
 Services / Description 
 
Distance
 
Comments
  
NextHome Arrowsmith Realty 407-712-4071
407-992-8955
[web site]
[email]
Hangar leasing / sales

More info about NextHome Arrowsmith Realty
on airport  
   write
 

Would you like to see your business listed on this page?

 If your business provides an interesting product or service to pilots, flight crews, aircraft, or users of the Orlando Apopka Airport, you should consider listing it here.  To start the listing process, click on the button below
 
Add a business
 

Other Pages about Orlando Apopka Airport

www.flx04.org
 
Update a link
 
Copyright © AirNav, LLC. All rights reserved. Privacy Policy  Contact